This demonstration page uses our WeatherBlox Daily Observations layout. Learn more.

39.92423, -83.80882

Hourly Observations for May 27, 2017

Temp ( °F °C ) Dew Point ( °F °C ) Humidity (%) Winds ( mph kmh ) Pressure ( in mb ) Visibility ( mi km ) Precip ( " mm )
12:20 am 00:20 Mostly Clear 64 18 63 17 94 94 S 16 26 29.83 1010 10 16.0934 0 0.0254
12:56 am 00:56 Partly Cloudy 65 18.3 61 16.1 87 87 S 8 13 29.84 1010 10 16.0934 0 0.0254
1:56 am 01:56 Cloudy 65 18.3 62 16.7 90 90 SSE 8 13 29.83 1010 10 16.0934 0 0
2:56 am 02:56 Cloudy 65 18.3 62 16.7 90 90 SSE 8 13 29.81 1010 10 16.0934 0 0
3:56 am 03:56 Cloudy 65 18.3 62 16.7 90 90 SSE 6 9 29.81 1010 10 16.0934 0 0
4:56 am 04:56 Cloudy 65 18.3 62 16.7 90 90 SW 6 9 29.81 1010 10 16.0934 0 0
5:03 am 05:03 Cloudy 64 18 63 17 94 94 SSW 6 9 29.8 1009 10 16.0934 0 0
5:56 am 05:56 Cloudy 65 18.3 63 17.2 93 93 Calm 29.82 1010 10 16.0934 0 0
6:27 am 06:27 Cloudy 64 18 63 17 94 94 Calm 29.8 1009 10 16.0934 0 0
6:38 am 06:38 Cloudy 64 18 63 17 94 94 Calm 29.8 1009 10 16.0934 0 0
6:56 am 06:56 Cloudy 64 17.8 63 17.2 96 96 Calm 29.83 1010 10 16.0934 0 0
7:34 am 07:34 Cloudy 64 18 64 18 100 100 Calm 29.83 1010 10 16.0934 0 0
7:56 am 07:56 Cloudy 66 18.9 64 17.8 93 93 Calm 29.85 1011 10 16.0934 0 0
8:29 am 08:29 Cloudy 66 19 64 18 94 94 WSW 6 9 29.85 1011 10 16.0934 0 0
8:56 am 08:56 Cloudy 68 20 65 18.3 90 90 W 7 11 29.86 1011 10 16.0934 0 0
9:34 am 09:34 Cloudy 70 21 66 19 88 88 W 9 15 29.85 1011 10 16.0934 0 0
9:56 am 09:56 Cloudy 71 21.7 66 18.9 84 84 W 12 19 29.86 1011 9 14.48406 0 0
10:14 am 10:14 Cloudy 70 21 66 19 88 88 W 12 19 29.85 1011 8 12.87472 0 0
10:56 am 10:56 Cloudy 70 21.1 66 18.9 87 87 WNW 6 9 29.87 1011 7 11.26538 0 0
11:40 am 11:40 Mostly Cloudy 72 22 66 19 83 83 NW 6 9 29.85 1011 10 16.0934 0 0
11:56 am 11:56 Partly Cloudy 73 22.8 67 19.4 81 81 VRB 7 11 29.86 1011 10 16.0934 0 0
12:12 pm 12:12 Mostly Cloudy 73 23 66 19 78 78 WNW 5 7 29.85 1011 10 16.0934 0 0
12:56 pm 12:56 Cloudy 74 23.3 66 18.9 76 76 NNW 7 11 29.88 1012 10 16.0934 0 0
1:24 pm 13:24 Cloudy 73 23 66 19 78 78 W 7 11 29.88 1012 10 16.0934 0 0
1:56 pm 13:56 Cloudy 76 24.4 67 19.4 74 74 NNW 7 11 29.87 1012 10 16.0934 0 0
2:29 pm 14:29 Cloudy 75 24 66 19 74 74 NNW 5 7 29.83 1010 10 16.0934 0 0
2:56 pm 14:56 Cloudy 77 25 67 19.4 71 71 Calm 29.86 1011 10 16.0934 0 0
3:56 pm 15:56 Partly Cloudy 78 25.6 67 19.4 69 69 NW 8 13 29.84 1011 10 16.0934 0 0
4:56 pm 16:56 Mostly Cloudy 79 26.1 67 19.4 67 67 NW 7 11 29.83 1010 10 16.0934 0 0
5:56 pm 17:56 Mostly Cloudy 79 26.1 66 18.9 65 65 NNW 9 15 29.82 1010 10 16.0934 0 0
6:56 pm 18:56 Cloudy 79 26.1 65 18.3 62 62 NNW 8 13 29.83 1010 10 16.0934 0 0
7:56 pm 19:56 Sunny 76 24.4 66 18.9 72 72 N 5 7 29.83 1010 10 16.0934 0 0
8:56 pm 20:56 Mostly Cloudy 72 22.2 66 18.9 82 82 ENE 5 7 29.83 1010 10 16.0934 0 0
9:56 pm 21:56 Cloudy 72 22.2 67 19.4 84 84 E 3 6 29.84 1011 10 16.0934 0 0
10:56 pm 22:56 Clear 69 20.6 65 18.3 87 87 E 6 9 29.84 1011 10 16.0934 0 0
11:56 pm 23:56 Partly Cloudy 67 19.4 65 18.3 93 93 NE 7 11 29.82 1010 10 16.0934 0 0

Powered by AerisWeather